User: anonymous   Login
Location: Warszawa
(52.2500°N, 21.0000°E)
Time: 23:28:35
(UTC+02:00)
Language:

Gurwin Techsat 1B - Orbit

View from above orbital plane
View from above orbital plane
View from above satellite
View from above satellite

Ground track
Ground track

The orbit data is extracted from the following two-line orbital elements,

1 25397U 98043D   24114.85444228  .00000411  00000-0  19906-3 0  9993
2 25397  98.9176  80.7808 0001018  11.6152 348.5049 14.24023970339689
Epoch (UTC): 23 April 2024 20:30:23
Eccentricity: 0.0001018
inclination: 98.9176°
perigee height: 811 km
apogee height: 812 km
right ascension of ascending node: 80.7808°
argument of perigee: 11.6152°
revolutions per day: 14.24023970
mean anomaly at epoch: 348.5049°
orbit number at epoch: 33968

The dashed part of the orbit path shows where the satellite is in the earth's shadow,  

DLR